Location: Lane
(33.5226°N, 79.8788°W)
Time: 10:08:46
(UTC+00:00)

SR - Pass Details

Date: 28 September 2022
Orbit: 577 x 874 km, 66.7° (Epoch: 07 December)

Event Time Altitude Azimuth Distance (km) Brightness Sun altitude
Rises 03:56:43 0° 236° (SW) 3,395 - -54.1°
Reaches altitude 10° 03:59:30 10° 247° (WSW) 2,490 - -54.4°
Maximum altitude 04:04:25 28° 305° (NW) 1,585 - -54.9°
Drops below altitude 10° 04:09:25 10° 3° (N) 2,527 - -55.4°
Sets 04:12:17 0° 15° (NNE) 3,455 - -55.7°
